Change the Weather History Date:

Tuesday, May 6, 2014

  Actual Average (KEYE) Record (KEYE)
Temperature  
Mean Temperature 60 °F 60 °F  
Max Temperature 73 °F 69 °F 84 °F (2001)
Min Temperature 46 °F 50 °F 43 °F (2005)
Degree Days  
Heating Degree Days 6 6  
Month to date heating degree days 42  
Since 1 July heating degree days 5237  
Cooling Degree Days 0 1  
Month to date cooling degree days 6  
Year to date cooling degree days 21  
Growing Degree Days 10 (Base 50)    
Moisture  
Dew Point 44 °F    
Average Humidity 46    
Maximum Humidity 76    
Minimum Humidity 38    
Precipitation  
Precipitation 0.00 in 0.21 in 0.36 in (2002)
Month to date precipitation 1.29  
Year to date precipitation 12.83  
Sea Level Pressure  
Sea Level Pressure 29.93 in    
Wind  
Wind Speed 12 mph (East)    
Max Wind Speed 16 mph    
Max Gust Speed 23 mph    
Visibility 10 miles    
Events      
T = Trace of Precipitation, MM = Missing Value Source: NWS Daily Summary

Daily Weather History Graph

Daily Weather History Graph

Search for Another Location

Airport or City:

Trip Planner

Search our weather history database for the weather conditions in past years. The results will help you decide how hot, cold, wet, or windy it might be!

Date:

Astronomy

May. 06, 2014 Rise Set
Actual Time 6:38 AM EDT 8:43 PM EDT
Civil Twilight 6:08 AM EDT 9:12 PM EDT
Nautical Twilight 5:32 AM EDT 9:49 PM EDT
Astronomical Twilight 4:52 AM EDT 10:28 PM EDT
Moon 12:53 PM EDT (5/6) 2:01 AM EDT (5/6)
Length of Visible Light 15h 04m
Length of Day
14h 05m
Waxing Crescent, 46% of the Moon is Illuminated
May 6
Waxing Crescent
May 6
First Quarter
May 14
Full
May 21
Last Quarter
May 28
New

Hourly Weather History & Observations

Time (EDT) Temp. Windchill Dew Point Humidity Pressure Visibility Wind Dir Wind Speed Gust Speed Precip Events Conditions
2:45 AM 50.0 °F - 41.0 °F 71% 29.92 in 10.0 mi NE 8.1 mph - N/A   Scattered Clouds
3:45 AM 46.4 °F 41.9 °F 39.2 °F 76% 29.92 in 10.0 mi NE 9.2 mph - N/A   Clear
7:45 AM 50.0 °F - 41.0 °F 71% 29.96 in 10.0 mi ENE 9.2 mph - N/A   Clear
8:05 AM 50.0 °F - 41.0 °F 71% 29.97 in 10.0 mi East 10.4 mph - N/A   Clear
8:25 AM 51.8 °F - 41.0 °F 67% 29.97 in 10.0 mi East 9.2 mph - N/A   Clear
8:45 AM 53.6 °F - 41.0 °F 62% 29.98 in 10.0 mi East 11.5 mph - N/A   Clear
9:05 AM 53.6 °F - 41.0 °F 62% 29.98 in 10.0 mi East 12.7 mph - N/A   Clear
10:05 AM 59.0 °F - 39.2 °F 48% 29.98 in 10.0 mi East 15.0 mph - N/A   Clear
10:25 AM 59.0 °F - 39.2 °F 48% 29.97 in 10.0 mi ESE 15.0 mph - N/A   Clear
10:45 AM 60.8 °F - 39.2 °F 45% 29.97 in 10.0 mi East 15.0 mph 23.0 mph N/A   Clear
11:05 AM 62.6 °F - 39.2 °F 42% 29.97 in 10.0 mi East 13.8 mph 19.6 mph N/A   Clear
11:25 AM 62.6 °F - 39.2 °F 42% 29.97 in 10.0 mi ESE 11.5 mph - N/A   Clear
11:45 AM 64.4 °F - 41.0 °F 42% 29.97 in 10.0 mi East 13.8 mph - N/A   Clear
12:05 PM 64.4 °F - 41.0 °F 42% 29.96 in 10.0 mi East 13.8 mph 20.7 mph N/A   Clear
12:25 PM 66.2 °F - 41.0 °F 40% 29.96 in 10.0 mi East 13.8 mph 21.9 mph N/A   Clear
12:45 PM 66.2 °F - 42.8 °F 43% 29.96 in 10.0 mi East 15.0 mph 19.6 mph N/A   Clear
1:05 PM 68.0 °F - 42.8 °F 40% 29.96 in 10.0 mi East 11.5 mph 17.3 mph N/A   Clear
1:25 PM 68.0 °F - 42.8 °F 40% 29.95 in 10.0 mi East 15.0 mph 19.6 mph N/A   Clear
1:45 PM 69.8 °F - 44.6 °F 40% 29.94 in 10.0 mi East 12.7 mph 20.7 mph N/A   Clear
2:05 PM 69.8 °F - 44.6 °F 40% 29.94 in 10.0 mi ESE 15.0 mph 19.6 mph N/A   Clear
2:25 PM 71.6 °F - 44.6 °F 38% 29.93 in 10.0 mi ESE 12.7 mph 18.4 mph N/A   Clear
2:45 PM 71.6 °F - 44.6 °F 38% 29.93 in 10.0 mi East 16.1 mph - N/A   Clear
3:05 PM 71.6 °F - 44.6 °F 38% 29.92 in 10.0 mi East 12.7 mph 20.7 mph N/A   Clear
3:25 PM 71.6 °F - 46.4 °F 41% 29.91 in 10.0 mi East 16.1 mph 23.0 mph N/A   Clear
4:05 PM 73.4 °F - 46.4 °F 38% 29.91 in 10.0 mi SE 11.5 mph 19.6 mph N/A   Clear
4:25 PM 73.4 °F - 46.4 °F 38% 29.90 in 10.0 mi ESE 12.7 mph 18.4 mph N/A   Clear
4:45 PM 73.4 °F - 46.4 °F 38% 29.90 in 10.0 mi East 15.0 mph - N/A   Clear
5:05 PM 73.4 °F - 46.4 °F 38% 29.90 in 10.0 mi SE 13.8 mph 19.6 mph N/A   Clear
5:25 PM 73.4 °F - 46.4 °F 38% 29.90 in 10.0 mi ESE 12.7 mph 20.7 mph N/A   Clear
5:45 PM 73.4 °F - 46.4 °F 38% 29.89 in 10.0 mi East 13.8 mph 20.7 mph N/A   Clear
6:05 PM 73.4 °F - 46.4 °F 38% 29.89 in 10.0 mi ESE 12.7 mph 21.9 mph N/A   Clear
6:25 PM 73.4 °F - 46.4 °F 38% 29.90 in 10.0 mi ESE 13.8 mph 18.4 mph N/A   Clear
6:45 PM 73.4 °F - 46.4 °F 38% 29.89 in 10.0 mi ESE 15.0 mph 20.7 mph N/A   Clear
7:05 PM 73.4 °F - 46.4 °F 38% 29.89 in 10.0 mi ESE 13.8 mph - N/A   Clear
7:25 PM 71.6 °F - 46.4 °F 41% 29.89 in 10.0 mi ESE 10.4 mph - N/A   Clear
7:45 PM 71.6 °F - 46.4 °F 41% 29.89 in 10.0 mi East 12.7 mph 18.4 mph N/A   Clear
8:05 PM 69.8 °F - 46.4 °F 43% 29.89 in 10.0 mi East 11.5 mph - N/A   Clear
8:25 PM 68.0 °F - 48.2 °F 49% 29.90 in 7.0 mi East 9.2 mph - N/A   Clear
8:45 PM 66.2 °F - 48.2 °F 52% 29.91 in 10.0 mi East 8.1 mph - N/A   Clear
9:05 PM 68.0 °F - 48.2 °F 49% 29.88 in 10.0 mi East 15.0 mph - N/A   Clear
9:25 PM 68.0 °F - 48.2 °F 49% 29.89 in 10.0 mi ESE 11.5 mph - N/A   Clear